COSMOS 1275 DEB, 42218

Orbit data source: Space-Track

COSMOS 1275 DEB, 42218 is space debris in LEO originally from a launch on Thu, 04 Jun 1981 UTC launched from the Plesetsk Missile And Space Complex (PKMTR). Debris objects in space refer to the collection of defunct objects orbiting the Earth. Examples of debris include non-operational satellites, rocket bodies, and fragments generated from explosions, collisions, or faulty payload assembly.

Loading next visibility...
Identifier
42218, 1981-053UJ
Orbit
LEO
Country
Flag of CISCIS
Related business
Manufacturer
Unknown
Mission
Spacecraft
Bus & Motor
Unknown
Mass
Unknown
Launch date (UTC)
1981-06-04 (44 years ago)
Launch vehicle
Unknown
Launch site
Plesetsk Missile And Space Complex (PKMTR)
Object type
Payload
Rocket body
Debris
Shape & HBR
Unknown shape, 0.1 m
Radar Cross Section
Small (<0.1 m²)

Expand to show TLE details & history
Last TLE update: 3 weeks ago

TLE from 3 weeks ago
0 COSMOS 1275 DEB
1 42218U 81053UJ  25272.27780183  .00003913  00000-0  22970-2 0  9996
2 42218  82.8651 113.3652 0063902  93.2281 267.6207 14.06882610605136
Epoch: 2025-09-29T06:40Z
TLE epoch observation values (Epoch: 2025-09-29T06:40:02.078Z)
Latitude
0.00007°
Longitude
5.07273°
Altitude
875.22 km
Speed
7.414 km/s
True Right ascension
07h 33m 27s
True Declination
0° 00' 00"
Sunlit
Object was in daylight at epoch
Visualization orbit readout
Latitude
Unknown
Longitude
Unknown
Altitude
Unknown
Speed
Unknown
Apparent Right ascension
Unknown
Apparent Declination
Unknown
Sunlit
N/A
Visualization observer readout
Local Sidereal Time
06:59:16
Azimuth
Unknown
Elevation
Unknown
Doppler factor
Unknown
Orbital elements
Apogee altitude
913.466 km
Perigee altitude
820.868 km
Semi-major axis
7,245.304 km
Eccentricity
0.00639
Inclination
82.8651°
RAAN
113.3652°
Arg. of periapsis
93.2281°
True anomaly
266.88933°
Mean anomaly
267.6207°
Eccentric anomaly
267.25499°
Mean motion
3.51932 °/min
Orbital period
102.29 mins
BSTAR
0.002297

Documentation

Showing up to 5 results
|